Regional Weather Roundup
Issued by NWS

Home | Current Version | Previous Version | Text Only | Print | Product List | Glossary On
Versions: 1 2 3 4 5 6 7 8 9 10 11 12 13 14 15 16 17 18 19 20 21 22 23 24 25 26 27 28 29 30 31 32 33 34 35 36 37 38 39 40 41 42 43 44 45 46 47 48 49 50
000
ASUS43 KFSD 260910
RWRSD

WEATHER ROUNDUP FOR SOUTH DAKOTA
NATIONAL WEATHER SERVICE SIOUX FALLS SD
400 AM CDT SUN OCT 26 2014

NOTE: "FAIR" INDICATES FEW OR NO CLOUDS BELOW 12,000 FEET WITH NO
SIGNIFICANT WEATHER AND/OR OBSTRUCTIONS TO VISIBILITY.


SDZ001>005-009-010-012>017-261000-
NORTHWEST AND NORTH CENTRAL SOUTH DAKOTA

CITY           SKY/WX    TMP DP  RH WIND       PRES   REMARKS
BUFFALO          N/A     49  34  56 S14       29.58F
FAITH            N/A     48  34  58 SE24      29.70F
MOBRIDGE       PTCLDY    51  34  52 SE18      29.77F
$$

SDZ012>016-024>037-041>051-057-063-072>074-261000-
SOUTHWEST AND SOUTH CENTRAL SOUTH DAKOTA

CITY           SKY/WX    TMP DP  RH WIND       PRES   REMARKS
RAPID CTY ARPT CLOUDY    52  38  58 SE9       29.70F
PIERRE         PTCLDY    51  33  50 SE15      29.81F
CUSTER         PTCLDY    53  28  38 W8        29.85F
ELLSWORTH AFB  CLOUDY    56  38  50 SE14      29.69F
PHILIP         CLOUDY    45  35  68 E8        29.76F
PINE RIDGE     CLEAR     56  49  77 S20G30    29.78S
SPEARFISH      FAIR      73  32  21 SW26G41   29.65F
WINNER         FAIR      53  34  48 SE13G23   29.83F
$$

SDZ004>011-016>023-039-040-261000-
NORTHEAST SOUTH DAKOTA

CITY           SKY/WX    TMP DP  RH WIND       PRES   REMARKS
ABERDEEN       CLEAR     38  31  76 SE7       29.90F
WATERTOWN      CLEAR     40  30  67 SE6       29.93F
SISSETON         N/A     33  28  81 SE7       29.94F WCI  27
$$

SDZ017-020-022-023-036>040-048>070-261000-
SOUTHEAST SOUTH DAKOTA

CITY           SKY/WX    TMP DP  RH WIND       PRES   REMARKS
SIOUX FALLS    CLEAR     42  34  73 E8        29.95F
HURON          CLEAR     44  31  60 SE8       29.90F
CHAMBERLAIN    CLEAR     43  34  70 E8        29.85F
MITCHELL       CLEAR     45  34  65 SE9       29.91F
YANKTON        CLEAR     45  34  65 E7        29.92F
$$

ABBREVIATIONS USED IN REMARKS
   TC - TEMPERATURE IN CELSIUS
  WCI - WIND CHILL INDEX
   HX - HEAT INDEX
  VSB - VISIBILITY




USA.gov is the U.S. government's official web portal to all federal, state and local government web resources and services.